Location: Starlight Observatory
(38.4029°N, 85.8936°W)
Time: 03:55:39
(UTC-04:00)

Iridium 62 - Visible Passes

Search period start: 24 May 2016 00:00
Search period end: 03 June 2016 00:00
Orbit: 776 x 779 km, 86.4° (Epoch: 23 May)

Date Brightness Start Highest point End Pass type
(mag) Time Alt. Az. Time Alt. Az. Time Alt. Az.
24 May 5.8 22:45:51 10° N 22:51:03 67° E 22:53:20 33° SSE visible
25 May 8.3 00:28:57 10° NW 00:31:05 13° WNW 00:33:13 10° WSW visible
25 May 6.5 22:12:38 10° NNE 22:17:26 35° E 22:20:12 21° SE visible
25 May 7.7 23:53:49 10° NNW 23:57:54 24° W 00:00:41 15° WSW visible
26 May 7.3 21:39:57 10° NNE 21:43:40 19° ENE 21:47:04 11° ESE visible
26 May 6.8 23:19:39 10° NNW 23:24:35 44° W 23:27:34 22° SSW visible
27 May 5.8 22:45:55 10° N 22:51:09 83° W 22:54:27 23° S visible
28 May 6.1 22:12:30 10° N 22:17:36 52° E 22:21:22 18° SSE visible
28 May 8.3 23:54:40 10° NW 23:57:48 16° W 00:00:57 10° WSW visible
29 May 6.9 21:39:27 10° NNE 21:43:55 28° E 21:48:17 10° SE visible
29 May 7.4 23:20:03 10° NNW 23:24:34 30° W 23:28:47 11° SW visible
30 May 6.4 22:46:05 10° N 22:51:12 57° W 22:55:43 13° SSW visible
31 May 5.8 22:12:28 10° N 22:17:43 77° E 22:22:42 11° S visible
31 May 8.6 23:56:26 10° WNW 23:57:39 11° WNW 23:58:53 10° W visible
01 Jun 6.4 21:39:12 10° NNE 21:44:06 40° E 21:49:00 10° SSE visible
01 Jun 8.0 23:20:40 10° NW 23:24:29 21° W 23:28:18 10° SW visible
02 Jun 7.1 22:46:23 10° NNW 22:51:12 38° W 22:55:59 10° SSW visible
